Private Wetterstation Wechselburg
Wetterdaten: Mittwoch, 06.04.2011
Datum Zeit Temp. +2m Bodentemp. Temp.+5cm Temp. Wind Windchill X Diff Temp. Feuchte +2m Feuchte +5cm Sonnenschein Luftdruck Regen Wind Richtung Richtung Sonnenschein UV Taupunkt Windchill Windben
06.04.2011 00:00 11,7 C 12,9 C 11,1 C 11,6 C 11,3 C 0,0 C 64 % 67 % 0 % 1024,6 hPa 0,0 l/m 3,2 km/h (1 Bft) S-SW 202 0 min 0,0 UV-I 5,1 C 11,3 C 4,0 km/h (1 Bft)
06.04.2011 00:08 11,6 C 12,9 C 11,2 C 11,5 C 11,3 C 0,0 C 64 % 67 % 0 % 1024,6 hPa 0,0 l/m 1,6 km/h (1 Bft) N 0 0 min 0,0 UV-I 5,0 C 11,3 C 4,5 km/h (1 Bft)
06.04.2011 00:15 11,7 C 12,9 C 11,3 C 11,6 C 11,3 C 0,0 C 64 % 67 % 0 % 1024,5 hPa 0,0 l/m 1,6 km/h (1 Bft) W-SW 247 0 min 0,0 UV-I 5,1 C 11,3 C 3,4 km/h (1 Bft)
06.04.2011 00:20 11,7 C 12,9 C 11,3 C 11,6 C 11,4 C 0,0 C 64 % 67 % 0 % 1024,5 hPa 0,0 l/m 1,8 km/h (1 Bft) O-SO 112 0 min 0,0 UV-I 5,1 C 11,4 C 3,5 km/h (1 Bft)
06.04.2011 00:25 11,7 C 12,9 C 11,3 C 11,6 C 11,4 C 0,0 C 64 % 67 % 0 % 1024,5 hPa 0,0 l/m 1,9 km/h (1 Bft) N-NO 22 0 min 0,0 UV-I 5,1 C 11,4 C 5,1 km/h (1 Bft)
06.04.2011 00:30 11,7 C 12,9 C 11,2 C 11,6 C 11,4 C 0,0 C 64 % 67 % 0 % 1024,5 hPa 0,0 l/m 1,6 km/h (1 Bft) S-SO 157 0 min 0,0 UV-I 5,1 C 11,4 C 0,0 km/h (0 Bft)
06.04.2011 00:35 11,6 C 12,9 C 11,2 C 11,5 C 11,4 C 0,0 C 64 % 67 % 0 % 1023,9 hPa 0,0 l/m 1,4 km/h (1 Bft) SO 135 0 min 0,0 UV-I 5,0 C 11,4 C 10,1 km/h (2 Bft)
06.04.2011 00:40 11,6 C 12,9 C 11,2 C 11,5 C 11,3 C 0,0 C 64 % 67 % 0 % 1023,9 hPa 0,0 l/m 1,4 km/h (1 Bft) N-NW 337 0 min 0,0 UV-I 5,0 C 11,3 C 3,1 km/h (1 Bft)
06.04.2011 00:45 11,7 C 12,9 C 11,2 C 11,5 C 11,2 C 0,0 C 64 % 67 % 0 % 1023,9 hPa 0,0 l/m 1,4 km/h (1 Bft) N-NO 22 0 min 0,0 UV-I 5,1 C 11,2 C 2,3 km/h (1 Bft)
06.04.2011 00:50 11,6 C 12,8 C 11,2 C 11,5 C 11,2 C 0,0 C 64 % 67 % 0 % 1023,9 hPa 0,0 l/m 1,3 km/h (1 Bft) O 90 0 min 0,0 UV-I 5,0 C 11,2 C 0,0 km/h (0 Bft)
06.04.2011 00:55 11,6 C 12,8 C 11,2 C 11,4 C 11,1 C 0,0 C 64 % 67 % 0 % 1023,9 hPa 0,0 l/m 1,0 km/h (0 Bft) SO 135 0 min 0,0 UV-I 5,0 C 11,1 C 5,5 km/h (1 Bft)
06.04.2011 01:00 11,6 C 12,8 C 11,2 C 11,4 C 11,1 C 0,0 C 65 % 67 % 0 % 1023,9 hPa 0,0 l/m 1,3 km/h (1 Bft) N-NW 337 0 min 0,0 UV-I 5,2 C 11,1 C 0,0 km/h (0 Bft)
06.04.2011 01:09 11,6 C 12,8 C 11,2 C 11,4 C 11,1 C 0,0 C 65 % 67 % 0 % 1023,9 hPa 0,0 l/m 1,4 km/h (1 Bft) N 0 0 min 0,0 UV-I 5,2 C 11,1 C 1,8 km/h (1 Bft)
06.04.2011 01:15 11,6 C 12,8 C 11,2 C 11,5 C 11,2 C 0,0 C 64 % 67 % 0 % 1023,8 hPa 0,0 l/m 2,9 km/h (1 Bft) S-SW 202 0 min 0,0 UV-I 5,0 C 11,2 C 16,1 km/h (3 Bft)
06.04.2011 01:20 11,7 C 12,8 C 11,3 C 11,5 C 11,2 C 0,0 C 64 % 67 % 0 % 1023,8 hPa 0,0 l/m 5,0 km/h (1 Bft) S 180 0 min 0,0 UV-I 5,1 C 11,2 C 5,6 km/h (1 Bft)
06.04.2011 01:25 11,6 C 12,8 C 11,2 C 11,4 C 10,9 C 0,0 C 64 % 67 % 0 % 1023,8 hPa 0,0 l/m 6,9 km/h (2 Bft) S 180 0 min 0,0 UV-I 5,0 C 10,9 C 8,9 km/h (2 Bft)
06.04.2011 01:30 11,6 C 12,8 C 11,3 C 11,4 C 11,0 C 0,0 C 64 % 67 % 0 % 1023,8 hPa 0,0 l/m 7,2 km/h (2 Bft) W-SW 247 0 min 0,0 UV-I 5,0 C 11,0 C 9,2 km/h (2 Bft)
06.04.2011 01:35 11,6 C 12,8 C 11,3 C 11,4 C 11,1 C 0,0 C 64 % 66 % 0 % 1023,8 hPa 0,0 l/m 6,9 km/h (2 Bft) SW 225 0 min 0,0 UV-I 5,0 C 11,1 C 16,6 km/h (3 Bft)
06.04.2011 01:40 11,6 C 12,8 C 11,3 C 11,5 C 11,2 C 0,0 C 64 % 66 % 0 % 1023,8 hPa 0,0 l/m 6,3 km/h (2 Bft) S-SW 202 0 min 0,0 UV-I 5,0 C 11,2 C 12,7 km/h (3 Bft)
06.04.2011 01:45 11,7 C 12,8 C 11,3 C 11,6 C 11,4 C 0,0 C 64 % 66 % 0 % 1023,8 hPa 0,0 l/m 5,1 km/h (1 Bft) SW 225 0 min 0,0 UV-I 5,1 C 11,4 C 5,8 km/h (2 Bft)
06.04.2011 01:50 11,6 C 12,8 C 11,3 C 11,6 C 11,5 C 0,0 C 64 % 66 % 0 % 1023,8 hPa 0,0 l/m 4,0 km/h (1 Bft) O 90 0 min 0,0 UV-I 5,0 C 11,5 C 7,9 km/h (2 Bft)
06.04.2011 01:55 11,6 C 12,8 C 11,3 C 11,5 C 11,4 C 0,0 C 64 % 66 % 0 % 1023,8 hPa 0,0 l/m 2,9 km/h (1 Bft) SO 135 0 min 0,0 UV-I 5,0 C 11,4 C 5,0 km/h (1 Bft)
06.04.2011 02:00 11,7 C 12,8 C 11,2 C 11,6 C 11,3 C 0,0 C 64 % 66 % 0 % 1023,8 hPa 0,0 l/m 1,8 km/h (1 Bft) W-SW 247 0 min 0,0 UV-I 5,1 C 11,3 C 3,5 km/h (1 Bft)
06.04.2011 02:09 11,5 C 12,8 C 11,1 C 11,3 C 11,0 C 0,0 C 64 % 66 % 0 % 1023,8 hPa 0,0 l/m 2,6 km/h (1 Bft) N 0 0 min 0,0 UV-I 4,9 C 11,0 C 8,5 km/h (2 Bft)
06.04.2011 02:15 11,4 C 12,8 C 11,1 C 11,2 C 10,8 C 0,0 C 65 % 67 % 0 % 1023,6 hPa 0,0 l/m 3,2 km/h (1 Bft) S-SW 202 0 min 0,0 UV-I 5,1 C 10,8 C 4,5 km/h (1 Bft)
06.04.2011 02:20 11,5 C 12,8 C 11,1 C 11,3 C 10,8 C 0,0 C 65 % 67 % 0 % 1023,6 hPa 0,0 l/m 3,5 km/h (1 Bft) SW 225 0 min 0,0 UV-I 5,2 C 10,8 C 2,1 km/h (1 Bft)
06.04.2011 02:25 11,3 C 12,7 C 10,9 C 11,1 C 10,8 C 0,0 C 65 % 67 % 0 % 1023,6 hPa 0,0 l/m 2,1 km/h (1 Bft) S-SO 157 0 min 0,0 UV-I 5,0 C 10,8 C 0,0 km/h (0 Bft)
06.04.2011 02:30 11,3 C 12,7 C 10,8 C 11,1 C 10,8 C 0,0 C 66 % 68 % 0 % 1023,6 hPa 0,0 l/m 0,6 km/h (0 Bft) SW 225 0 min 0,0 UV-I 5,2 C 10,8 C 0,0 km/h (0 Bft)
06.04.2011 02:35 11,2 C 12,7 C 10,8 C 11,0 C 10,6 C 0,0 C 66 % 68 % 0 % 1024,1 hPa 0,0 l/m 0,3 km/h (0 Bft) S 180 0 min 0,0 UV-I 5,1 C 10,6 C 0,0 km/h (0 Bft)
06.04.2011 02:40 11,2 C 12,7 C 10,8 C 11,0 C 10,6 C 0,0 C 66 % 68 % 0 % 1024,1 hPa 0,0 l/m 0,3 km/h (0 Bft) NO 45 0 min 0,0 UV-I 5,1 C 10,6 C 0,0 km/h (0 Bft)
06.04.2011 02:45 11,2 C 12,7 C 10,8 C 11,0 C 10,6 C 0,0 C 67 % 69 % 0 % 1024,1 hPa 0,0 l/m 0,2 km/h (0 Bft) N 360 0 min 0,0 UV-I 5,3 C 10,6 C 0,0 km/h (0 Bft)
06.04.2011 02:50 11,2 C 12,7 C 10,8 C 11,0 C 10,6 C 0,0 C 67 % 69 % 0 % 1024,1 hPa 0,0 l/m 0,0 km/h (0 Bft) W-SW 247 0 min 0,0 UV-I 5,3 C 10,6 C 0,0 km/h (0 Bft)
06.04.2011 02:55 11,3 C 12,7 C 10,8 C 11,1 C 10,7 C 0,0 C 67 % 70 % 0 % 1023,9 hPa 0,0 l/m 0,3 km/h (0 Bft) S 180 0 min 0,0 UV-I 5,4 C 10,7 C 0,0 km/h (0 Bft)
06.04.2011 03:00 11,2 C 12,7 C 10,7 C 11,0 C 10,7 C 0,0 C 67 % 70 % 0 % 1023,9 hPa 0,0 l/m 0,6 km/h (0 Bft) W-SW 247 0 min 0,0 UV-I 5,3 C 10,7 C 1,6 km/h (1 Bft)
06.04.2011 03:09 11,2 C 12,8 C 10,6 C 11,0 C 10,7 C 0,0 C 67 % 70 % 0 % 1023,9 hPa 0,0 l/m 3,1 km/h (1 Bft) N 0 0 min 0,0 UV-I 5,3 C 10,7 C 6,6 km/h (2 Bft)
06.04.2011 03:15 11,1 C 12,8 C 10,5 C 10,9 C 10,6 C 0,0 C 67 % 70 % 0 % 1024,1 hPa 0,0 l/m 3,2 km/h (1 Bft) N 360 0 min 0,0 UV-I 5,2 C 10,6 C 2,7 km/h (1 Bft)
06.04.2011 03:20 11,1 C 12,8 C 10,5 C 10,9 C 10,6 C 0,0 C 67 % 70 % 0 % 1024,1 hPa 0,0 l/m 3,2 km/h (1 Bft) W-SW 247 0 min 0,0 UV-I 5,2 C 10,6 C 3,5 km/h (1 Bft)
06.04.2011 03:25 11,1 C 12,8 C 10,7 C 11,0 C 10,7 C 0,0 C 67 % 70 % 0 % 1024,1 hPa 0,0 l/m 3,4 km/h (1 Bft) O-SO 112 0 min 0,0 UV-I 5,2 C 10,7 C 3,1 km/h (1 Bft)
06.04.2011 03:30 11,1 C 12,8 C 10,7 C 11,0 C 10,7 C 0,0 C 67 % 70 % 0 % 1024,1 hPa 0,0 l/m 3,5 km/h (1 Bft) S-SW 202 0 min 0,0 UV-I 5,2 C 10,7 C 4,5 km/h (1 Bft)
06.04.2011 03:35 11,1 C 12,8 C 10,7 C 11,0 C 10,8 C 0,0 C 67 % 70 % 0 % 1023,8 hPa 0,0 l/m 3,5 km/h (1 Bft) W-NW 292 0 min 0,0 UV-I 5,2 C 10,8 C 2,6 km/h (1 Bft)
06.04.2011 03:40 11,1 C 12,8 C 10,6 C 11,0 C 10,7 C 0,0 C 67 % 70 % 0 % 1023,8 hPa 0,0 l/m 3,4 km/h (1 Bft) S-SW 202 0 min 0,0 UV-I 5,2 C 10,7 C 5,6 km/h (1 Bft)
06.04.2011 03:45 11,1 C 12,8 C 10,6 C 11,0 C 10,7 C 0,0 C 67 % 70 % 0 % 1023,8 hPa 0,0 l/m 3,9 km/h (1 Bft) SW 225 0 min 0,0 UV-I 5,2 C 10,7 C 7,1 km/h (2 Bft)
06.04.2011 03:50 11,1 C 12,8 C 10,6 C 11,0 C 10,8 C 0,0 C 68 % 70 % 0 % 1023,8 hPa 0,0 l/m 4,3 km/h (1 Bft) S-SW 202 0 min 0,0 UV-I 5,4 C 10,8 C 2,6 km/h (1 Bft)
06.04.2011 03:55 11,1 C 12,8 C 10,5 C 11,0 C 10,8 C 0,0 C 68 % 71 % 0 % 1024,2 hPa 0,0 l/m 4,0 km/h (1 Bft) SW 225 0 min 0,0 UV-I 5,4 C 10,8 C 3,7 km/h (1 Bft)
06.04.2011 04:00 11,1 C 12,8 C 10,5 C 11,0 C 10,8 C 0,0 C 68 % 71 % 0 % 1024,2 hPa 0,0 l/m 3,5 km/h (1 Bft) SW 225 0 min 0,0 UV-I 5,4 C 10,8 C 4,3 km/h (1 Bft)
06.04.2011 04:09 11,1 C 12,7 C 10,4 C 11,0 C 10,7 C 0,0 C 69 % 72 % 0 % 1024,2 hPa 0,0 l/m 2,7 km/h (1 Bft) N 0 0 min 0,0 UV-I 5,6 C 10,7 C 6,4 km/h (2 Bft)
06.04.2011 04:15 11,1 C 12,7 C 10,4 C 11,0 C 10,7 C 0,0 C 69 % 72 % 0 % 1024,0 hPa 0,0 l/m 3,4 km/h (1 Bft) S-SW 202 0 min 0,0 UV-I 5,6 C 10,7 C 3,1 km/h (1 Bft)
06.04.2011 04:20 11,0 C 12,7 C 10,4 C 10,9 C 10,6 C 0,0 C 69 % 72 % 0 % 1024,0 hPa 0,0 l/m 3,1 km/h (1 Bft) O-NO 67 0 min 0,0 UV-I 5,5 C 10,6 C 2,9 km/h (1 Bft)
06.04.2011 04:25 10,9 C 12,7 C 10,5 C 10,7 C 10,4 C 0,0 C 69 % 71 % 0 % 1024,0 hPa 0,0 l/m 1,6 km/h (1 Bft) W-SW 247 0 min 0,0 UV-I 5,4 C 10,4 C 2,1 km/h (1 Bft)
06.04.2011 04:30 10,8 C 12,7 C 10,4 C 10,6 C 10,3 C 0,0 C 69 % 71 % 0 % 1024,0 hPa 0,0 l/m 1,6 km/h (1 Bft) NO 45 0 min 0,0 UV-I 5,3 C 10,3 C 0,0 km/h (0 Bft)
06.04.2011 04:35 10,8 C 12,7 C 10,4 C 10,6 C 10,2 C 0,0 C 69 % 71 % 0 % 1023,9 hPa 0,0 l/m 1,6 km/h (1 Bft) NW 315 0 min 0,0 UV-I 5,3 C 10,2 C 2,4 km/h (1 Bft)
06.04.2011 04:40 10,8 C 12,7 C 10,4 C 10,6 C 10,2 C 0,0 C 69 % 71 % 0 % 1023,9 hPa 0,0 l/m 1,9 km/h (1 Bft) SO 135 0 min 0,0 UV-I 5,3 C 10,2 C 6,8 km/h (2 Bft)
06.04.2011 04:45 10,8 C 12,7 C 10,5 C 10,5 C 10,0 C 0,0 C 69 % 71 % 0 % 1023,9 hPa 0,0 l/m 2,3 km/h (1 Bft) S-SO 157 0 min 0,0 UV-I 5,3 C 10,0 C 4,7 km/h (1 Bft)
06.04.2011 04:50 10,7 C 12,7 C 10,4 C 10,4 C 9,9 C 0,0 C 69 % 71 % 0 % 1023,9 hPa 0,0 l/m 1,9 km/h (1 Bft) O-SO 112 0 min 0,0 UV-I 5,2 C 9,9 C 0,0 km/h (0 Bft)
06.04.2011 04:55 10,5 C 12,7 C 10,2 C 10,2 C 9,6 C 0,0 C 70 % 72 % 0 % 1023,8 hPa 0,0 l/m 1,1 km/h (1 Bft) NO 45 0 min 0,0 UV-I 5,3 C 9,6 C 0,0 km/h (0 Bft)
06.04.2011 05:00 10,5 C 12,7 C 10,1 C 10,2 C 9,5 C 0,0 C 70 % 72 % 0 % 1023,8 hPa 0,0 l/m 1,1 km/h (1 Bft) N 360 0 min 0,0 UV-I 5,3 C 9,5 C 2,3 km/h (1 Bft)
06.04.2011 05:10 10,5 C 12,7 C 10,0 C 10,1 C 9,4 C 0,0 C 70 % 73 % 0 % 1023,8 hPa 0,0 l/m 2,7 km/h (1 Bft) N 0 0 min 0,0 UV-I 5,3 C 9,4 C 6,4 km/h (2 Bft)
06.04.2011 05:15 10,4 C 12,7 C 9,9 C 10,1 C 9,5 C 0,0 C 70 % 73 % 0 % 1023,4 hPa 0,0 l/m 3,9 km/h (1 Bft) S-SO 157 0 min 0,0 UV-I 5,2 C 9,5 C 4,7 km/h (1 Bft)
06.04.2011 05:20 10,4 C 12,7 C 9,9 C 10,0 C 9,3 C 0,0 C 70 % 73 % 0 % 1023,4 hPa 0,0 l/m 4,5 km/h (1 Bft) SW 225 0 min 0,0 UV-I 5,2 C 9,3 C 5,0 km/h (1 Bft)
06.04.2011 05:25 10,4 C 12,7 C 9,9 C 10,1 C 9,5 C 0,0 C 70 % 73 % 0 % 1023,4 hPa 0,0 l/m 4,3 km/h (1 Bft) S-SW 202 0 min 0,0 UV-I 5,2 C 9,5 C 4,7 km/h (1 Bft)
06.04.2011 05:30 10,4 C 12,6 C 9,8 C 10,1 C 9,4 C 0,0 C 71 % 73 % 0 % 1023,4 hPa 0,0 l/m 4,7 km/h (1 Bft) W-SW 247 0 min 0,0 UV-I 5,4 C 9,2 C 5,0 km/h (1 Bft)
06.04.2011 05:35 10,4 C 12,6 C 9,9 C 10,1 C 9,4 C 0,0 C 71 % 73 % 0 % 1023,7 hPa 0,0 l/m 5,1 km/h (1 Bft) SW 225 0 min 0,0 UV-I 5,4 C 9,0 C 6,0 km/h (2 Bft)
06.04.2011 05:40 10,5 C 12,6 C 9,9 C 10,2 C 9,6 C 0,0 C 71 % 74 % 0 % 1023,7 hPa 0,0 l/m 5,1 km/h (1 Bft) S-SW 202 0 min 0,0 UV-I 5,5 C 9,3 C 4,5 km/h (1 Bft)
06.04.2011 05:45 10,4 C 12,6 C 10,0 C 10,2 C 9,9 C 0,0 C 71 % 74 % 0 % 1023,7 hPa 0,0 l/m 5,3 km/h (1 Bft) SW 225 0 min 0,0 UV-I 5,4 C 9,6 C 3,4 km/h (1 Bft)
06.04.2011 05:50 10,5 C 12,6 C 10,0 C 10,3 C 9,8 C 0,0 C 71 % 74 % 0 % 1023,7 hPa 0,0 l/m 5,8 km/h (2 Bft) W-SW 247 0 min 0,0 UV-I 5,5 C 9,3 C 6,4 km/h (2 Bft)
06.04.2011 05:55 10,5 C 12,6 C 10,1 C 10,3 C 9,9 C 0,0 C 71 % 74 % 0 % 1024,2 hPa 0,0 l/m 6,3 km/h (2 Bft) S 180 0 min 0,0 UV-I 5,5 C 9,3 C 9,5 km/h (2 Bft)
06.04.2011 06:00 10,6 C 12,6 C 10,1 C 10,5 C 10,2 C 0,0 C 71 % 74 % 0 % 1024,2 hPa 0,0 l/m 6,0 km/h (2 Bft) S-SO 157 0 min 0,0 UV-I 5,6 C 10,2 C 6,0 km/h (2 Bft)
06.04.2011 06:10 10,7 C 12,6 C 10,3 C 10,7 C 10,6 C 0,0 C 71 % 74 % 0 % 1024,2 hPa 0,0 l/m 2,9 km/h (1 Bft) N 0 0 min 0,0 UV-I 5,7 C 10,6 C 0,0 km/h (0 Bft)
06.04.2011 06:15 10,7 C 12,6 C 10,1 C 10,6 C 10,5 C 0,0 C 71 % 74 % 0 % 1024,6 hPa 0,0 l/m 1,8 km/h (1 Bft) SW 225 0 min 0,0 UV-I 5,7 C 10,5 C 3,5 km/h (1 Bft)
06.04.2011 06:20 10,7 C 12,6 C 10,2 C 10,6 C 10,5 C 0,0 C 71 % 74 % 0 % 1024,6 hPa 0,0 l/m 3,2 km/h (1 Bft) S-SW 202 0 min 0,0 UV-I 5,7 C 10,5 C 6,1 km/h (2 Bft)
06.04.2011 06:25 10,7 C 12,6 C 10,3 C 10,5 C 10,0 C 0,0 C 72 % 75 % 0 % 1024,6 hPa 0,0 l/m 6,6 km/h (2 Bft) SW 225 0 min 0,0 UV-I 5,9 C 9,3 C 11,1 km/h (2 Bft)
06.04.2011 06:30 10,6 C 12,6 C 10,3 C 10,3 C 9,8 C 0,0 C 72 % 75 % 0 % 1024,6 hPa 0,0 l/m 7,2 km/h (2 Bft) SW 225 0 min 0,0 UV-I 5,8 C 8,9 C 7,9 km/h (2 Bft)
06.04.2011 06:35 10,7 C 12,6 C 10,3 C 10,5 C 10,0 C 0,0 C 72 % 75 % 0 % 1024,4 hPa 0,0 l/m 6,6 km/h (2 Bft) SW 225 0 min 0,0 UV-I 5,9 C 9,3 C 5,5 km/h (1 Bft)
06.04.2011 06:40 10,7 C 12,6 C 10,3 C 10,5 C 10,1 C 0,0 C 72 % 75 % 0 % 1024,4 hPa 0,0 l/m 6,1 km/h (2 Bft) S 180 0 min 0,0 UV-I 5,9 C 10,1 C 7,2 km/h (2 Bft)
06.04.2011 06:45 10,6 C 12,6 C 10,3 C 10,4 C 10,0 C 0,0 C 72 % 75 % 0 % 1024,4 hPa 0,0 l/m 6,6 km/h (2 Bft) SW 225 0 min 0,0 UV-I 5,8 C 9,3 C 9,0 km/h (2 Bft)
06.04.2011 06:50 10,7 C 12,6 C 10,2 C 10,6 C 10,3 C 0,0 C 72 % 75 % 0 % 1024,4 hPa 0,0 l/m 5,3 km/h (1 Bft) SO 135 0 min 0,0 UV-I 5,9 C 10,3 C 0,0 km/h (0 Bft)
06.04.2011 06:55 10,7 C 12,6 C 10,3 C 10,7 C 10,6 C 0,0 C 72 % 75 % 0 % 1024,4 hPa 0,0 l/m 4,0 km/h (1 Bft) SO 135 0 min 0,0 UV-I 5,9 C 10,6 C 3,1 km/h (1 Bft)
06.04.2011 07:00 10,7 C 12,6 C 10,4 C 10,7 C 10,7 C 0,0 C 72 % 74 % 0 % 1024,4 hPa 0,0 l/m 3,2 km/h (1 Bft) S 180 0 min 0,0 UV-I 5,9 C 10,7 C 7,6 km/h (2 Bft)
06.04.2011 07:10 10,8 C 12,6 C 10,4 C 10,7 C 10,6 C 0,0 C 72 % 74 % 0 % 1024,4 hPa 0,0 l/m 2,9 km/h (1 Bft) N 0 0 min 0,0 UV-I 6,0 C 10,6 C 4,5 km/h (1 Bft)
06.04.2011 07:15 10,8 C 12,6 C 10,4 C 10,7 C 10,6 C 0,0 C 72 % 74 % 0 % 1024,2 hPa 0,0 l/m 3,2 km/h (1 Bft) SO 135 0 min 0,0 UV-I 6,0 C 10,6 C 3,2 km/h (1 Bft)
06.04.2011 07:20 10,9 C 12,6 C 10,5 C 10,8 C 10,7 C 0,0 C 72 % 74 % 0 % 1024,2 hPa 0,0 l/m 3,1 km/h (1 Bft) O-NO 67 0 min 0,0 UV-I 6,1 C 10,7 C 1,9 km/h (1 Bft)
06.04.2011 07:25 10,8 C 12,6 C 10,4 C 10,8 C 10,8 C 0,0 C 72 % 74 % 0 % 1024,2 hPa 0,0 l/m 2,4 km/h (1 Bft) W-SW 247 0 min 0,0 UV-I 6,0 C 10,8 C 2,7 km/h (1 Bft)
06.04.2011 07:30 10,9 C 12,6 C 10,5 C 10,9 C 10,8 C 0,0 C 72 % 74 % 0 % 1024,2 hPa 0,0 l/m 3,5 km/h (1 Bft) SW 225 0 min 0,0 UV-I 6,1 C 10,8 C 6,6 km/h (2 Bft)
06.04.2011 07:35 11,1 C 12,6 C 10,5 C 10,9 C 10,5 C 0,0 C 72 % 75 % 0 % 1024,3 hPa 0,0 l/m 6,4 km/h (2 Bft) W-SW 247 0 min 0,0 UV-I 6,2 C 10,5 C 8,5 km/h (2 Bft)
06.04.2011 07:40 11,0 C 12,5 C 10,6 C 10,9 C 10,3 C 0,0 C 72 % 75 % 0 % 1024,3 hPa 0,0 l/m 8,0 km/h (2 Bft) W-SW 247 0 min 0,0 UV-I 6,2 C 10,3 C 7,4 km/h (2 Bft)
06.04.2011 07:45 11,1 C 12,5 C 10,7 C 10,9 C 10,6 C 0,0 C 72 % 75 % 0 % 1024,3 hPa 0,0 l/m 7,6 km/h (2 Bft) S-SW 202 0 min 0,0 UV-I 6,2 C 10,6 C 7,4 km/h (2 Bft)
06.04.2011 07:50 11,2 C 12,5 C 10,8 C 11,1 C 10,9 C 0,0 C 72 % 75 % 0 % 1024,3 hPa 0,0 l/m 6,6 km/h (2 Bft) W-SW 247 0 min 0,0 UV-I 6,3 C 10,9 C 9,2 km/h (2 Bft)
06.04.2011 07:55 11,2 C 12,5 C 10,7 C 11,4 C 11,4 C 0,2 C 72 % 75 % 5 % 1024,4 hPa 0,0 l/m 4,2 km/h (1 Bft) S 180 0 min 0,0 UV-I 6,3 C 11,4 C 1,6 km/h (1 Bft)
06.04.2011 08:00 11,3 C 12,5 C 10,8 C 11,4 C 11,4 C 0,1 C 72 % 75 % 3 % 1024,4 hPa 0,0 l/m 3,2 km/h (1 Bft) SO 135 0 min 0,0 UV-I 6,4 C 11,4 C 5,8 km/h (2 Bft)
06.04.2011 08:10 11,7 C 12,5 C 11,1 C 11,7 C 11,6 C 0,0 C 72 % 75 % 0 % 1024,4 hPa 0,0 l/m 5,5 km/h (1 Bft) N 0 0 min 0,0 UV-I 6,8 C 11,6 C 6,4 km/h (2 Bft)
06.04.2011 08:15 11,9 C 12,5 C 11,2 C 11,9 C 11,8 C 0,0 C 72 % 75 % 0 % 1024,3 hPa 0,0 l/m 6,3 km/h (2 Bft) S-SO 157 0 min 0,0 UV-I 7,0 C 11,8 C 4,0 km/h (1 Bft)
06.04.2011 08:20 11,8 C 12,5 C 11,2 C 12,2 C 12,2 C 0,4 C 72 % 76 % 11 % 1024,3 hPa 0,0 l/m 5,5 km/h (1 Bft) W 270 0 min 0,0 UV-I 6,9 C 12,2 C 6,1 km/h (2 Bft)
06.04.2011 08:25 11,9 C 12,5 C 11,2 C 12,2 C 12,2 C 0,3 C 73 % 76 % 8 % 1024,3 hPa 0,0 l/m 5,3 km/h (1 Bft) S 180 0 min 0,1 UV-I 7,2 C 12,2 C 9,0 km/h (2 Bft)
06.04.2011 08:30 12,0 C 12,5 C 11,5 C 11,9 C 11,7 C 0,0 C 73 % 76 % 0 % 1024,3 hPa 0,0 l/m 7,6 km/h (2 Bft) SW 225 0 min 0,1 UV-I 7,3 C 11,7 C 13,2 km/h (3 Bft)
06.04.2011 08:35 12,3 C 12,5 C 11,6 C 12,2 C 11,9 C 0,0 C 73 % 76 % 0 % 1024,4 hPa 0,0 l/m 8,9 km/h (2 Bft) W 270 0 min 0,1 UV-I 7,6 C 11,9 C 12,7 km/h (3 Bft)
06.04.2011 08:40 12,3 C 12,5 C 11,7 C 12,3 C 12,1 C 0,0 C 72 % 75 % 0 % 1024,4 hPa 0,0 l/m 9,0 km/h (2 Bft) W 270 0 min 0,1 UV-I 7,4 C 12,1 C 9,0 km/h (2 Bft)
06.04.2011 08:45 12,3 C 12,5 C 11,8 C 12,3 C 12,0 C 0,0 C 72 % 75 % 0 % 1024,4 hPa 0,0 l/m 9,3 km/h (2 Bft) S 180 0 min 0,1 UV-I 7,4 C 12,0 C 16,7 km/h (3 Bft)
06.04.2011 08:50 12,3 C 12,5 C 11,8 C 12,3 C 12,1 C 0,0 C 72 % 75 % 0 % 1024,4 hPa 0,0 l/m 8,9 km/h (2 Bft) W 270 0 min 0,1 UV-I 7,4 C 12,1 C 11,6 km/h (2 Bft)
06.04.2011 08:55 12,4 C 12,5 C 11,9 C 12,3 C 11,9 C 0,0 C 72 % 75 % 0 % 1024,9 hPa 0,0 l/m 9,5 km/h (2 Bft) SW 225 0 min 0,2 UV-I 7,5 C 11,9 C 18,7 km/h (3 Bft)
06.04.2011 09:00 12,4 C 12,5 C 12,0 C 12,2 C 11,9 C 0,0 C 72 % 75 % 0 % 1024,9 hPa 0,0 l/m 10,5 km/h (2 Bft) W 270 0 min 0,2 UV-I 7,5 C 11,9 C 15,3 km/h (3 Bft)
06.04.2011 09:10 12,5 C 12,5 C 12,0 C 12,4 C 12,0 C 0,0 C 73 % 76 % 0 % 1024,9 hPa 0,0 l/m 9,5 km/h (2 Bft) N 0 0 min 0,1 UV-I 7,8 C 12,0 C 12,4 km/h (3 Bft)
06.04.2011 09:15 12,7 C 12,5 C 12,1 C 12,6 C 12,2 C 0,0 C 73 % 75 % 0 % 1024,9 hPa 0,0 l/m 9,0 km/h (2 Bft) S 180 0 min 0,2 UV-I 8,0 C 12,2 C 11,7 km/h (2 Bft)
06.04.2011 09:20 12,7 C 12,5 C 12,2 C 12,6 C 12,3 C 0,0 C 73 % 76 % 0 % 1024,9 hPa 0,0 l/m 8,7 km/h (2 Bft) W-SW 247 0 min 0,2 UV-I 8,0 C 12,3 C 10,3 km/h (2 Bft)
06.04.2011 09:25 12,9 C 12,5 C 12,3 C 12,8 C 12,4 C 0,0 C 73 % 75 % 0 % 1024,9 hPa 0,0 l/m 9,2 km/h (2 Bft) W-SW 247 0 min 0,3 UV-I 8,2 C 12,4 C 10,9 km/h (2 Bft)
06.04.2011 09:30 12,9 C 12,5 C 12,3 C 12,8 C 12,6 C 0,0 C 73 % 76 % 0 % 1024,9 hPa 0,0 l/m 9,2 km/h (2 Bft) S 180 0 min 0,3 UV-I 8,2 C 12,6 C 9,3 km/h (2 Bft)
06.04.2011 09:35 12,9 C 12,5 C 12,5 C 13,2 C 13,2 C 0,3 C 73 % 75 % 8 % 1024,7 hPa 0,0 l/m 6,4 km/h (2 Bft) S 180 0 min 0,3 UV-I 8,2 C 13,2 C 10,3 km/h (2 Bft)
06.04.2011 09:40 12,9 C 12,5 C 12,4 C 13,4 C 13,4 C 0,5 C 73 % 76 % 13 % 1024,7 hPa 0,0 l/m 4,8 km/h (1 Bft) W-SW 247 0 min 0,3 UV-I 8,2 C 13,4 C 7,4 km/h (2 Bft)
06.04.2011 09:45 12,8 C 12,5 C 12,5 C 13,2 C 13,2 C 0,4 C 73 % 76 % 11 % 1024,7 hPa 0,0 l/m 6,0 km/h (2 Bft) SW 225 0 min 0,2 UV-I 8,1 C 13,2 C 9,0 km/h (2 Bft)
06.04.2011 09:50 12,9 C 12,5 C 12,4 C 13,0 C 12,6 C 0,1 C 74 % 76 % 3 % 1024,7 hPa 0,0 l/m 8,4 km/h (2 Bft) SW 225 0 min 0,2 UV-I 8,4 C 12,6 C 13,2 km/h (3 Bft)
06.04.2011 09:55 13,1 C 12,5 C 12,5 C 13,0 C 12,5 C 0,0 C 74 % 77 % 0 % 1025,0 hPa 0,0 l/m 9,8 km/h (2 Bft) S 180 0 min 0,3 UV-I 8,6 C 12,5 C 9,5 km/h (2 Bft)
06.04.2011 10:00 13,2 C 12,6 C 12,7 C 13,1 C 12,8 C 0,0 C 74 % 77 % 0 % 1025,0 hPa 0,0 l/m 10,3 km/h (2 Bft) SW 225 0 min 0,3 UV-I 8,7 C 12,8 C 14,6 km/h (3 Bft)
06.04.2011 10:10 13,5 C 12,6 C 12,8 C 13,3 C 12,8 C 0,0 C 73 % 76 % 0 % 1025,0 hPa 0,0 l/m 12,2 km/h (2 Bft) N 0 0 min 0,4 UV-I 8,8 C 12,8 C 20,8 km/h (4 Bft)
06.04.2011 10:15 13,6 C 12,6 C 12,9 C 13,5 C 12,9 C 0,0 C 74 % 76 % 0 % 1024,8 hPa 0,0 l/m 12,6 km/h (3 Bft) SW 225 0 min 0,6 UV-I 9,1 C 12,9 C 23,0 km/h (4 Bft)
06.04.2011 10:20 13,9 C 12,6 C 13,1 C 13,7 C 13,3 C 0,0 C 73 % 76 % 0 % 1024,8 hPa 0,0 l/m 12,1 km/h (2 Bft) S-SW 202 0 min 0,6 UV-I 9,1 C 13,3 C 13,0 km/h (3 Bft)
06.04.2011 10:25 14,0 C 12,6 C 13,3 C 14,0 C 14,0 C 0,0 C 72 % 75 % 0 % 1024,8 hPa 0,0 l/m 10,0 km/h (2 Bft) O-NO 67 0 min 0,8 UV-I 9,0 C 14,0 C 6,9 km/h (2 Bft)
06.04.2011 10:30 14,1 C 12,6 C 13,5 C 14,6 C 14,8 C 0,5 C 72 % 75 % 13 % 1024,8 hPa 0,0 l/m 8,5 km/h (2 Bft) S-SO 157 0 min 0,8 UV-I 9,1 C 14,8 C 17,7 km/h (3 Bft)
06.04.2011 10:35 14,3 C 12,5 C 13,5 C 14,7 C 14,5 C 0,4 C 72 % 76 % 11 % 1024,8 hPa 0,0 l/m 9,7 km/h (2 Bft) W-SW 247 0 min 0,8 UV-I 9,3 C 14,5 C 21,1 km/h (4 Bft)
06.04.2011 10:40 14,6 C 12,6 C 13,6 C 14,8 C 14,7 C 0,2 C 72 % 75 % 5 % 1024,8 hPa 0,0 l/m 11,7 km/h (2 Bft) S 180 0 min 0,8 UV-I 9,6 C 14,7 C 10,8 km/h (2 Bft)
06.04.2011 10:45 14,7 C 12,6 C 13,9 C 14,7 C 14,7 C 0,0 C 71 % 74 % 0 % 1024,8 hPa 0,0 l/m 12,9 km/h (3 Bft) W-SW 247 0 min 1,0 UV-I 9,5 C 14,7 C 19,3 km/h (3 Bft)
06.04.2011 10:50 14,7 C 12,6 C 13,7 C 14,7 C 14,4 C 0,0 C 71 % 75 % 0 % 1024,8 hPa 0,0 l/m 13,5 km/h (3 Bft) SW 225 0 min 1,0 UV-I 9,5 C 14,4 C 15,9 km/h (3 Bft)
06.04.2011 10:55 14,7 C 12,6 C 13,7 C 14,6 C 14,1 C 0,0 C 71 % 75 % 0 % 1024,8 hPa 0,0 l/m 14,5 km/h (3 Bft) SW 225 0 min 1,1 UV-I 9,5 C 14,1 C 25,7 km/h (4 Bft)
06.04.2011 11:00 14,4 C 12,6 C 13,7 C 14,3 C 14,1 C 0,0 C 71 % 75 % 0 % 1024,8 hPa 0,0 l/m 13,4 km/h (3 Bft) SW 225 0 min 1,1 UV-I 9,2 C 14,1 C 11,6 km/h (2 Bft)
06.04.2011 11:10 14,5 C 12,6 C 13,7 C 14,3 C 13,4 C 0,0 C 72 % 75 % 0 % 1024,8 hPa 0,0 l/m 15,0 km/h (3 Bft) N 0 0 min 0,8 UV-I 9,5 C 13,4 C 30,6 km/h (5 Bft)
06.04.2011 11:15 14,7 C 12,6 C 13,7 C 14,5 C 13,8 C 0,0 C 72 % 76 % 0 % 1024,9 hPa 0,0 l/m 14,2 km/h (3 Bft) S 180 0 min 0,9 UV-I 9,7 C 13,8 C 13,0 km/h (3 Bft)
06.04.2011 11:20 14,6 C 12,6 C 13,8 C 14,5 C 14,1 C 0,0 C 72 % 76 % 0 % 1024,9 hPa 0,0 l/m 12,9 km/h (3 Bft) W-SW 247 0 min 0,9 UV-I 9,6 C 14,1 C 18,0 km/h (3 Bft)
06.04.2011 11:25 14,9 C 12,7 C 13,9 C 14,7 C 14,2 C 0,0 C 72 % 75 % 0 % 1024,9 hPa 0,0 l/m 14,0 km/h (3 Bft) W-SW 247 0 min 0,9 UV-I 9,9 C 14,2 C 14,8 km/h (3 Bft)
06.04.2011 11:30 14,8 C 12,7 C 13,9 C 14,7 C 14,1 C 0,0 C 71 % 75 % 0 % 1024,9 hPa 0,0 l/m 14,2 km/h (3 Bft) W-SW 247 0 min 0,9 UV-I 9,6 C 14,1 C 13,4 km/h (3 Bft)
06.04.2011 11:35 14,7 C 12,7 C 13,9 C 14,6 C 14,3 C 0,0 C 72 % 76 % 0 % 1025,0 hPa 0,0 l/m 10,9 km/h (2 Bft) W-SW 247 0 min 0,6 UV-I 9,7 C 14,3 C 12,1 km/h (2 Bft)
06.04.2011 11:40 14,7 C 12,7 C 14,0 C 14,7 C 14,7 C 0,0 C 72 % 76 % 0 % 1025,0 hPa 0,0 l/m 8,4 km/h (2 Bft) SW 225 0 min 0,6 UV-I 9,7 C 14,7 C 8,7 km/h (2 Bft)
06.04.2011 11:45 14,7 C 12,7 C 14,0 C 14,7 C 14,7 C 0,0 C 72 % 76 % 0 % 1025,0 hPa 0,0 l/m 9,3 km/h (2 Bft) SW 225 0 min 0,8 UV-I 9,7 C 14,7 C 15,0 km/h (3 Bft)
06.04.2011 11:50 14,8 C 12,7 C 14,1 C 14,8 C 14,6 C 0,0 C 72 % 76 % 0 % 1025,0 hPa 0,0 l/m 10,3 km/h (2 Bft) S-SW 202 0 min 0,8 UV-I 9,8 C 14,6 C 9,0 km/h (2 Bft)
06.04.2011 11:55 14,9 C 12,7 C 14,1 C 14,9 C 14,7 C 0,0 C 72 % 75 % 0 % 1025,6 hPa 0,0 l/m 10,1 km/h (2 Bft) SW 225 0 min 0,9 UV-I 9,9 C 14,7 C 8,2 km/h (2 Bft)
06.04.2011 12:00 14,8 C 12,8 C 14,0 C 14,8 C 14,6 C 0,0 C 72 % 76 % 0 % 1025,6 hPa 0,0 l/m 10,0 km/h (2 Bft) S 180 0 min 0,9 UV-I 9,8 C 14,6 C 11,3 km/h (2 Bft)
06.04.2011 12:10 14,9 C 12,8 C 14,2 C 14,8 C 14,6 C 0,0 C 72 % 75 % 0 % 1025,6 hPa 0,0 l/m 12,7 km/h (3 Bft) N 0 0 min 0,8 UV-I 9,9 C 14,6 C 11,7 km/h (2 Bft)
06.04.2011 12:15 15,1 C 12,8 C 14,4 C 15,0 C 14,4 C 0,0 C 72 % 75 % 0 % 1025,3 hPa 0,0 l/m 14,2 km/h (3 Bft) S-SW 202 0 min 1,4 UV-I 10,1 C 14,4 C 13,2 km/h (3 Bft)
06.04.2011 12:20 15,3 C 12,8 C 14,6 C 15,2 C 15,0 C 0,0 C 72 % 75 % 0 % 1025,3 hPa 0,0 l/m 12,7 km/h (3 Bft) S-SW 202 0 min 1,4 UV-I 10,3 C 15,0 C 10,1 km/h (2 Bft)
06.04.2011 12:25 15,5 C 12,8 C 14,9 C 15,6 C 15,7 C 0,1 C 72 % 75 % 3 % 1025,3 hPa 0,0 l/m 12,1 km/h (2 Bft) W-SW 247 0 min 1,4 UV-I 10,5 C 15,7 C 13,7 km/h (3 Bft)
06.04.2011 12:30 15,6 C 12,9 C 14,9 C 15,8 C 15,6 C 0,2 C 71 % 75 % 5 % 1025,3 hPa 0,0 l/m 12,7 km/h (3 Bft) SW 225 0 min 1,4 UV-I 10,4 C 15,6 C 13,8 km/h (3 Bft)
06.04.2011 12:35 15,7 C 12,9 C 15,1 C 15,8 C 15,7 C 0,1 C 71 % 74 % 3 % 1025,3 hPa 0,0 l/m 13,2 km/h (3 Bft) SW 225 0 min 1,4 UV-I 10,5 C 15,7 C 12,9 km/h (3 Bft)
06.04.2011 12:40 15,7 C 12,9 C 15,0 C 15,7 C 15,7 C 0,0 C 71 % 74 % 0 % 1025,3 hPa 0,0 l/m 13,0 km/h (3 Bft) W-SW 247 0 min 1,4 UV-I 10,5 C 15,7 C 16,3 km/h (3 Bft)
06.04.2011 12:45 15,9 C 12,9 C 15,0 C 15,8 C 15,7 C 0,0 C 71 % 74 % 0 % 1025,3 hPa 0,0 l/m 12,2 km/h (2 Bft) W-SW 247 0 min 1,0 UV-I 10,6 C 15,7 C 16,9 km/h (3 Bft)
06.04.2011 12:50 15,9 C 12,9 C 15,1 C 15,9 C 15,8 C 0,0 C 71 % 74 % 0 % 1025,3 hPa 0,0 l/m 11,9 km/h (2 Bft) W-SW 247 0 min 1,0 UV-I 10,6 C 15,8 C 16,3 km/h (3 Bft)
06.04.2011 12:55 16,1 C 12,9 C 15,2 C 16,1 C 15,9 C 0,0 C 71 % 74 % 0 % 1024,9 hPa 0,0 l/m 11,6 km/h (2 Bft) S 180 0 min 1,3 UV-I 10,8 C 15,9 C 9,8 km/h (2 Bft)
06.04.2011 13:00 16,1 C 13,0 C 15,3 C 16,2 C 16,3 C 0,1 C 71 % 74 % 3 % 1024,9 hPa 0,0 l/m 10,5 km/h (2 Bft) O-SO 112 0 min 1,3 UV-I 10,8 C 16,3 C 10,1 km/h (2 Bft)
06.04.2011 13:10 16,3 C 13,0 C 15,6 C 17,0 C 17,0 C 0,7 C 70 % 73 % 18 % 1024,9 hPa 0,0 l/m 9,3 km/h (2 Bft) N 0 0 min 1,2 UV-I 10,8 C 17,0 C 16,9 km/h (3 Bft)
06.04.2011 13:15 16,4 C 13,0 C 15,8 C 17,2 C 17,2 C 0,8 C 70 % 74 % 21 % 1024,9 hPa 0,0 l/m 10,0 km/h (2 Bft) S-SO 157 0 min 1,4 UV-I 10,9 C 17,2 C 12,7 km/h (3 Bft)
06.04.2011 13:20 16,6 C 13,1 C 16,0 C 17,5 C 17,5 C 0,9 C 70 % 72 % 24 % 1024,9 hPa 0,0 l/m 10,8 km/h (2 Bft) S 180 0 min 1,4 UV-I 11,1 C 17,5 C 11,7 km/h (2 Bft)
06.04.2011 13:25 16,9 C 13,1 C 16,1 C 17,6 C 17,6 C 0,7 C 69 % 73 % 18 % 1024,9 hPa 0,0 l/m 9,8 km/h (2 Bft) SW 225 0 min 1,5 UV-I 11,2 C 17,6 C 13,8 km/h (3 Bft)
06.04.2011 13:30 16,9 C 13,1 C 16,3 C 17,5 C 17,5 C 0,6 C 70 % 73 % 16 % 1024,9 hPa 0,0 l/m 9,8 km/h (2 Bft) W 270 0 min 1,5 UV-I 11,4 C 17,5 C 17,9 km/h (3 Bft)
06.04.2011 13:35 17,1 C 13,1 C 16,5 C 17,7 C 17,7 C 0,6 C 69 % 72 % 16 % 1024,4 hPa 0,0 l/m 10,9 km/h (2 Bft) S 180 0 min 1,6 UV-I 11,4 C 17,7 C 11,9 km/h (2 Bft)
06.04.2011 13:40 17,1 C 13,1 C 16,7 C 18,0 C 18,0 C 0,9 C 69 % 72 % 24 % 1024,4 hPa 0,0 l/m 10,8 km/h (2 Bft) SW 225 0 min 1,6 UV-I 11,4 C 18,0 C 11,1 km/h (2 Bft)
06.04.2011 13:45 17,2 C 13,2 C 16,7 C 18,4 C 18,4 C 1,2 C 69 % 71 % 32 % 1024,4 hPa 0,0 l/m 9,3 km/h (2 Bft) S 180 0 min 1,4 UV-I 11,5 C 18,4 C 16,6 km/h (3 Bft)
06.04.2011 13:50 17,3 C 13,2 C 16,8 C 18,3 C 18,3 C 1,0 C 69 % 72 % 26 % 1024,4 hPa 0,0 l/m 10,0 km/h (2 Bft) SW 225 0 min 1,4 UV-I 11,6 C 18,3 C 19,8 km/h (3 Bft)
06.04.2011 13:55 17,2 C 13,2 C 16,7 C 18,1 C 18,1 C 0,9 C 69 % 72 % 24 % 1024,8 hPa 0,0 l/m 11,3 km/h (2 Bft) W-SW 247 0 min 0,9 UV-I 11,5 C 18,1 C 15,8 km/h (3 Bft)
06.04.2011 14:00 17,1 C 13,2 C 16,5 C 17,8 C 17,7 C 0,7 C 69 % 71 % 18 % 1024,8 hPa 0,0 l/m 11,4 km/h (2 Bft) S 180 0 min 0,9 UV-I 11,4 C 17,7 C 17,1 km/h (3 Bft)
06.04.2011 14:10 17,0 C 13,3 C 16,4 C 17,4 C 17,3 C 0,4 C 69 % 72 % 11 % 1024,8 hPa 0,0 l/m 11,1 km/h (2 Bft) N 0 0 min 0,9 UV-I 11,3 C 17,3 C 9,3 km/h (2 Bft)
06.04.2011 14:15 17,3 C 13,3 C 16,7 C 17,6 C 17,6 C 0,3 C 69 % 73 % 8 % 1024,7 hPa 0,0 l/m 7,6 km/h (2 Bft) W-SW 247 0 min 1,0 UV-I 11,6 C 17,6 C 9,8 km/h (2 Bft)
06.04.2011 14:20 17,4 C 13,3 C 17,0 C 18,1 C 18,1 C 0,7 C 69 % 72 % 18 % 1024,7 hPa 0,0 l/m 8,4 km/h (2 Bft) SW 225 0 min 1,0 UV-I 11,7 C 18,1 C 15,1 km/h (3 Bft)
06.04.2011 14:25 17,9 C 13,3 C 18,4 C 19,1 C 19,1 C 1,2 C 69 % 70 % 32 % 1024,7 hPa 0,0 l/m 11,6 km/h (2 Bft) SW 225 0 min 2,0 UV-I 12,1 C 19,1 C 19,0 km/h (3 Bft)
06.04.2011 14:30 18,0 C 13,3 C 18,5 C 19,6 C 19,6 C 1,6 C 68 % 67 % 42 % 1024,7 hPa 0,0 l/m 11,3 km/h (2 Bft) S 180 0 min 2,0 UV-I 12,0 C 19,6 C 6,0 km/h (2 Bft)
06.04.2011 14:35 18,0 C 13,3 C 18,5 C 19,7 C 19,7 C 1,7 C 67 % 67 % 45 % 1024,2 hPa 0,0 l/m 9,3 km/h (2 Bft) S 180 0 min 1,6 UV-I 11,8 C 19,7 C 9,3 km/h (2 Bft)
06.04.2011 14:40 18,2 C 13,3 C 18,7 C 19,9 C 19,9 C 1,7 C 68 % 67 % 45 % 1024,2 hPa 0,0 l/m 9,2 km/h (2 Bft) SW 225 0 min 1,6 UV-I 12,2 C 19,9 C 8,7 km/h (2 Bft)
06.04.2011 14:45 18,4 C 13,4 C 19,5 C 20,4 C 20,4 C 2,0 C 67 % 65 % 53 % 1024,2 hPa 0,0 l/m 9,8 km/h (2 Bft) SW 225 0 min 1,8 UV-I 12,2 C 20,4 C 10,5 km/h (2 Bft)
06.04.2011 14:50 18,7 C 13,4 C 20,5 C 20,8 C 20,8 C 2,1 C 67 % 64 % 55 % 1024,2 hPa 0,0 l/m 11,1 km/h (2 Bft) W-SW 247 0 min 1,8 UV-I 12,4 C 20,8 C 13,5 km/h (3 Bft)
06.04.2011 14:55 18,8 C 13,4 C 21,1 C 21,6 C 21,6 C 2,8 C 67 % 62 % 74 % 1024,3 hPa 0,0 l/m 11,3 km/h (2 Bft) SW 225 0 min 1,9 UV-I 12,5 C 21,6 C 16,4 km/h (3 Bft)
06.04.2011 15:00 19,1 C 13,5 C 21,5 C 21,8 C 21,8 C 2,7 C 66 % 60 % 71 % 1024,3 hPa 0,0 l/m 10,6 km/h (2 Bft) W 270 0 min 1,9 UV-I 12,6 C 21,8 C 12,4 km/h (3 Bft)
06.04.2011 15:10 18,8 C 13,5 C 21,1 C 21,0 C 21,0 C 2,2 C 66 % 59 % 58 % 1024,3 hPa 0,0 l/m 10,1 km/h (2 Bft) N 0 0 min 1,8 UV-I 12,3 C 21,0 C 12,7 km/h (3 Bft)
06.04.2011 15:15 18,5 C 13,5 C 19,9 C 20,0 C 20,0 C 1,5 C 67 % 63 % 39 % 1024,2 hPa 0,0 l/m 9,5 km/h (2 Bft) SW 225 0 min 1,1 UV-I 12,3 C 20,0 C 12,7 km/h (3 Bft)
06.04.2011 15:20 18,7 C 13,5 C 19,9 C 19,8 C 19,8 C 1,1 C 67 % 64 % 29 % 1024,2 hPa 0,0 l/m 9,8 km/h (2 Bft) S-SW 202 0 min 1,1 UV-I 12,4 C 19,8 C 12,4 km/h (3 Bft)
06.04.2011 15:25 18,6 C 13,6 C 20,0 C 20,3 C 20,3 C 1,7 C 67 % 64 % 45 % 1024,2 hPa 0,0 l/m 7,6 km/h (2 Bft) SW 225 0 min 1,1 UV-I 12,3 C 20,3 C 4,8 km/h (1 Bft)
06.04.2011 15:30 18,6 C 13,6 C 19,4 C 20,3 C 20,3 C 1,7 C 67 % 64 % 45 % 1024,2 hPa 0,0 l/m 6,8 km/h (2 Bft) SW 225 0 min 1,1 UV-I 12,3 C 20,3 C 14,2 km/h (3 Bft)
06.04.2011 15:35 18,7 C 13,6 C 19,8 C 20,1 C 20,1 C 1,4 C 67 % 64 % 37 % 1024,1 hPa 0,0 l/m 7,4 km/h (2 Bft) S 180 0 min 1,2 UV-I 12,4 C 20,1 C 10,1 km/h (2 Bft)
06.04.2011 15:40 18,6 C 13,7 C 20,2 C 20,5 C 20,5 C 1,9 C 67 % 64 % 50 % 1024,1 hPa 0,0 l/m 8,0 km/h (2 Bft) SW 225 0 min 1,2 UV-I 12,3 C 20,5 C 6,9 km/h (2 Bft)
06.04.2011 15:45 18,8 C 13,7 C 20,5 C 20,9 C 20,9 C 2,1 C 66 % 62 % 55 % 1024,1 hPa 0,0 l/m 8,5 km/h (2 Bft) O-SO 112 0 min 1,2 UV-I 12,3 C 20,9 C 9,3 km/h (2 Bft)
06.04.2011 15:50 18,9 C 13,7 C 20,8 C 21,1 C 21,1 C 2,2 C 67 % 63 % 58 % 1024,1 hPa 0,0 l/m 8,7 km/h (2 Bft) S-SW 202 0 min 1,2 UV-I 12,6 C 21,1 C 7,9 km/h (2 Bft)
06.04.2011 15:55 18,9 C 13,8 C 20,8 C 21,4 C 21,4 C 2,5 C 67 % 62 % 66 % 1023,8 hPa 0,0 l/m 9,5 km/h (2 Bft) S 180 0 min 1,2 UV-I 12,6 C 21,4 C 15,8 km/h (3 Bft)
06.04.2011 16:00 18,9 C 13,8 C 20,9 C 21,3 C 21,3 C 2,4 C 67 % 62 % 63 % 1023,8 hPa 0,0 l/m 10,5 km/h (2 Bft) S-SW 202 0 min 1,2 UV-I 12,6 C 21,3 C 14,6 km/h (3 Bft)
06.04.2011 16:10 19,1 C 13,8 C 20,7 C 21,5 C 21,5 C 2,4 C 67 % 63 % 63 % 1023,8 hPa 0,0 l/m 7,9 km/h (2 Bft) N 0 0 min 1,1 UV-I 12,8 C 21,5 C 9,5 km/h (2 Bft)
06.04.2011 16:15 18,8 C 13,9 C 19,7 C 20,6 C 20,6 C 1,8 C 67 % 65 % 47 % 1023,8 hPa 0,0 l/m 6,6 km/h (2 Bft) SW 225 0 min 0,9 UV-I 12,5 C 20,6 C 9,2 km/h (2 Bft)
06.04.2011 16:20 18,8 C 13,9 C 19,2 C 20,0 C 20,0 C 1,2 C 67 % 66 % 32 % 1023,8 hPa 0,0 l/m 7,9 km/h (2 Bft) SW 225 0 min 0,9 UV-I 12,5 C 20,0 C 12,2 km/h (2 Bft)
06.04.2011 16:25 18,7 C 13,9 C 18,9 C 19,5 C 19,5 C 0,8 C 67 % 68 % 21 % 1023,8 hPa 0,0 l/m 9,0 km/h (2 Bft) S 180 0 min 0,6 UV-I 12,4 C 19,5 C 15,0 km/h (3 Bft)
06.04.2011 16:30 18,7 C 13,9 C 18,6 C 19,3 C 19,3 C 0,6 C 68 % 68 % 16 % 1023,8 hPa 0,0 l/m 8,2 km/h (2 Bft) S 180 0 min 0,6 UV-I 12,7 C 19,3 C 8,4 km/h (2 Bft)
06.04.2011 16:35 18,7 C 14,1 C 18,6 C 19,3 C 19,3 C 0,6 C 68 % 68 % 16 % 1023,8 hPa 0,0 l/m 7,9 km/h (2 Bft) W-SW 247 0 min 0,5 UV-I 12,7 C 19,3 C 8,0 km/h (2 Bft)
06.04.2011 16:40 18,6 C 14,1 C 18,5 C 19,3 C 19,3 C 0,7 C 67 % 68 % 18 % 1023,8 hPa 0,0 l/m 7,2 km/h (2 Bft) W-SW 247 0 min 0,5 UV-I 12,3 C 19,3 C 12,6 km/h (3 Bft)
06.04.2011 16:45 18,6 C 14,1 C 18,4 C 19,2 C 19,2 C 0,6 C 68 % 70 % 16 % 1023,8 hPa 0,0 l/m 7,9 km/h (2 Bft) W-SW 247 0 min 0,5 UV-I 12,6 C 19,2 C 11,9 km/h (2 Bft)
06.04.2011 16:48 18,7 C 14,1 C 18,4 C 19,3 C 19,3 C 0,6 C 68 % 70 % 16 % 1023,8 hPa 0,0 l/m 8,4 km/h (2 Bft) SW 225 0 min 0,5 UV-I 12,7 C 19,3 C 15,1 km/h (3 Bft)
06.04.2011 16:53 18,7 C 14,1 C 18,3 C 19,2 C 19,2 C 0,5 C 68 % 70 % 13 % 1023,5 hPa 0,0 l/m 9,3 km/h (2 Bft) W-SW 247 0 min 0,5 UV-I 12,7 C 19,2 C 12,2 km/h (2 Bft)
06.04.2011 16:58 18,6 C 14,2 C 18,2 C 19,0 C 19,0 C 0,4 C 68 % 70 % 11 % 1023,5 hPa 0,0 l/m 9,8 km/h (2 Bft) W-SW 247 0 min 0,5 UV-I 12,6 C 19,0 C 10,9 km/h (2 Bft)
06.04.2011 17:03 18,5 C 14,2 C 17,9 C 18,8 C 18,8 C 0,3 C 68 % 70 % 8 % 1023,5 hPa 0,0 l/m 10,0 km/h (2 Bft) W-SW 247 0 min 0,4 UV-I 12,5 C 18,8 C 9,7 km/h (2 Bft)
06.04.2011 17:07 18,5 C 14,2 C 17,9 C 18,8 C 18,8 C 0,3 C 68 % 70 % 8 % 1023,5 hPa 0,0 l/m 10,0 km/h (2 Bft) W-SW 247 0 min 0,4 UV-I 12,5 C 18,8 C 9,7 km/h (2 Bft)
06.04.2011 17:10 18,5 C 14,2 C 17,9 C 18,7 C 18,7 C 0,2 C 68 % 71 % 5 % 1023,5 hPa 0,0 l/m 8,7 km/h (2 Bft) W-SW 247 0 min 0,4 UV-I 12,5 C 18,7 C 6,1 km/h (2 Bft)
06.04.2011 17:15 18,3 C 14,2 C 17,8 C 18,6 C 18,6 C 0,3 C 68 % 71 % 8 % 1023,8 hPa 0,0 l/m 7,6 km/h (2 Bft) S-SW 202 0 min 0,2 UV-I 12,3 C 18,6 C 13,0 km/h (3 Bft)
06.04.2011 17:20 18,3 C 14,2 C 17,7 C 18,5 C 18,5 C 0,2 C 69 % 71 % 5 % 1023,8 hPa 0,0 l/m 7,2 km/h (2 Bft) S-SW 202 0 min 0,2 UV-I 12,5 C 18,5 C 7,4 km/h (2 Bft)
06.04.2011 17:25 18,3 C 14,2 C 17,6 C 18,5 C 18,5 C 0,2 C 69 % 72 % 5 % 1023,8 hPa 0,0 l/m 7,2 km/h (2 Bft) SW 225 0 min 0,2 UV-I 12,5 C 18,5 C 12,2 km/h (2 Bft)
06.04.2011 17:30 18,3 C 14,3 C 17,7 C 18,4 C 18,4 C 0,1 C 69 % 72 % 3 % 1023,8 hPa 0,0 l/m 7,6 km/h (2 Bft) W-SW 247 0 min 0,2 UV-I 12,5 C 18,4 C 7,9 km/h (2 Bft)
06.04.2011 17:35 18,2 C 14,3 C 17,6 C 18,3 C 18,3 C 0,1 C 69 % 72 % 3 % 1023,9 hPa 0,0 l/m 8,7 km/h (2 Bft) SW 225 0 min 0,2 UV-I 12,4 C 18,3 C 11,3 km/h (2 Bft)
06.04.2011 17:40 18,1 C 14,3 C 17,5 C 18,3 C 18,3 C 0,2 C 70 % 72 % 5 % 1023,9 hPa 0,0 l/m 8,4 km/h (2 Bft) SW 225 0 min 0,2 UV-I 12,5 C 18,3 C 7,1 km/h (2 Bft)
06.04.2011 17:45 18,0 C 14,3 C 17,5 C 18,1 C 18,1 C 0,1 C 70 % 73 % 3 % 1023,9 hPa 0,0 l/m 7,6 km/h (2 Bft) S-SW 202 0 min 0,1 UV-I 12,4 C 18,1 C 7,1 km/h (2 Bft)
06.04.2011 17:50 18,0 C 14,3 C 17,3 C 18,0 C 18,0 C 0,0 C 70 % 73 % 0 % 1023,9 hPa 0,0 l/m 7,4 km/h (2 Bft) SW 225 0 min 0,1 UV-I 12,4 C 18,0 C 9,2 km/h (2 Bft)
06.04.2011 17:55 18,0 C 14,3 C 17,3 C 18,0 C 17,9 C 0,0 C 70 % 73 % 0 % 1023,6 hPa 0,0 l/m 7,9 km/h (2 Bft) SW 225 0 min 0,1 UV-I 12,4 C 17,9 C 6,3 km/h (2 Bft)
06.04.2011 18:00 17,9 C 14,3 C 17,4 C 17,9 C 17,9 C 0,0 C 70 % 73 % 0 % 1023,6 hPa 0,0 l/m 7,2 km/h (2 Bft) S-SW 202 0 min 0,1 UV-I 12,3 C 17,9 C 6,1 km/h (2 Bft)
06.04.2011 18:11 17,8 C 14,4 C 17,3 C 18,1 C 18,1 C 0,3 C 70 % 72 % 8 % 1023,6 hPa 0,0 l/m 6,8 km/h (2 Bft) N 0 0 min 0,1 UV-I 12,3 C 18,1 C 8,7 km/h (2 Bft)
06.04.2011 18:15 17,9 C 14,4 C 17,5 C 18,2 C 18,2 C 0,3 C 70 % 73 % 8 % 1023,6 hPa 0,0 l/m 6,3 km/h (2 Bft) W 270 0 min 0,1 UV-I 12,3 C 18,2 C 4,3 km/h (1 Bft)
06.04.2011 18:20 17,8 C 14,4 C 17,5 C 18,2 C 18,2 C 0,4 C 70 % 73 % 11 % 1023,6 hPa 0,0 l/m 6,1 km/h (2 Bft) S 180 0 min 0,1 UV-I 12,3 C 18,2 C 4,0 km/h (1 Bft)
06.04.2011 18:25 17,8 C 14,4 C 17,3 C 18,1 C 18,1 C 0,3 C 70 % 73 % 8 % 1023,6 hPa 0,0 l/m 7,1 km/h (2 Bft) SW 225 0 min 0,0 UV-I 12,3 C 18,1 C 8,5 km/h (2 Bft)
06.04.2011 18:30 17,7 C 14,4 C 17,3 C 18,1 C 18,1 C 0,4 C 70 % 73 % 11 % 1023,6 hPa 0,0 l/m 7,9 km/h (2 Bft) W 270 0 min 0,0 UV-I 12,2 C 18,1 C 10,9 km/h (2 Bft)
06.04.2011 18:35 17,6 C 14,4 C 17,0 C 17,9 C 17,9 C 0,3 C 70 % 72 % 8 % 1023,8 hPa 0,0 l/m 8,4 km/h (2 Bft) W 270 0 min 0,0 UV-I 12,1 C 17,9 C 9,2 km/h (2 Bft)
06.04.2011 18:40 17,4 C 14,4 C 16,9 C 17,5 C 17,5 C 0,1 C 71 % 73 % 3 % 1023,8 hPa 0,0 l/m 7,9 km/h (2 Bft) W-SW 247 0 min 0,0 UV-I 12,1 C 17,5 C 9,0 km/h (2 Bft)
06.04.2011 18:45 17,3 C 14,4 C 16,9 C 17,3 C 17,2 C 0,0 C 71 % 74 % 0 % 1023,8 hPa 0,0 l/m 7,6 km/h (2 Bft) SO 135 0 min 0,0 UV-I 12,0 C 17,2 C 9,5 km/h (2 Bft)
06.04.2011 18:50 17,2 C 14,4 C 16,7 C 17,2 C 17,1 C 0,0 C 72 % 74 % 0 % 1023,8 hPa 0,0 l/m 7,2 km/h (2 Bft) SW 225 0 min 0,0 UV-I 12,1 C 17,1 C 8,5 km/h (2 Bft)
06.04.2011 18:55 17,3 C 14,4 C 16,7 C 17,2 C 17,0 C 0,0 C 72 % 74 % 0 % 1024,0 hPa 0,0 l/m 6,4 km/h (2 Bft) SW 225 0 min 0,0 UV-I 12,2 C 17,0 C 8,5 km/h (2 Bft)
06.04.2011 19:00 17,1 C 14,5 C 16,7 C 17,0 C 16,9 C 0,0 C 72 % 74 % 0 % 1024,0 hPa 0,0 l/m 7,2 km/h (2 Bft) SW 225 0 min 0,0 UV-I 12,0 C 16,9 C 8,2 km/h (2 Bft)
06.04.2011 19:11 17,1 C 14,5 C 16,5 C 17,0 C 16,8 C 0,0 C 72 % 75 % 0 % 1024,0 hPa 0,0 l/m 7,1 km/h (2 Bft) N 0 0 min 0,0 UV-I 12,0 C 16,8 C 7,7 km/h (2 Bft)
06.04.2011 19:15 16,9 C 14,5 C 16,4 C 16,8 C 16,7 C 0,0 C 72 % 74 % 0 % 1024,0 hPa 0,0 l/m 7,4 km/h (2 Bft) W-SW 247 0 min 0,0 UV-I 11,8 C 16,7 C 13,2 km/h (3 Bft)
06.04.2011 19:20 16,8 C 14,5 C 16,5 C 16,7 C 16,6 C 0,0 C 72 % 74 % 0 % 1024,0 hPa 0,0 l/m 8,0 km/h (2 Bft) W-SW 247 0 min 0,0 UV-I 11,7 C 16,6 C 8,4 km/h (2 Bft)
06.04.2011 19:25 16,8 C 14,5 C 16,4 C 16,7 C 16,6 C 0,0 C 72 % 74 % 0 % 1024,0 hPa 0,0 l/m 8,5 km/h (2 Bft) SW 225 0 min 0,0 UV-I 11,7 C 16,6 C 9,2 km/h (2 Bft)
06.04.2011 19:30 16,7 C 14,5 C 16,3 C 16,7 C 16,6 C 0,0 C 72 % 74 % 0 % 1024,0 hPa 0,0 l/m 8,4 km/h (2 Bft) S-SW 202 0 min 0,0 UV-I 11,6 C 16,6 C 7,7 km/h (2 Bft)
06.04.2011 19:35 16,6 C 14,5 C 16,3 C 16,6 C 16,6 C 0,0 C 72 % 74 % 0 % 1024,0 hPa 0,0 l/m 8,0 km/h (2 Bft) S 180 0 min 0,0 UV-I 11,5 C 16,6 C 8,2 km/h (2 Bft)
06.04.2011 19:40 16,7 C 14,5 C 16,3 C 16,6 C 16,5 C 0,0 C 72 % 74 % 0 % 1024,0 hPa 0,0 l/m 7,9 km/h (2 Bft) W-SW 247 0 min 0,0 UV-I 11,6 C 16,5 C 15,0 km/h (3 Bft)
06.04.2011 19:45 16,5 C 14,5 C 16,2 C 16,5 C 16,5 C 0,0 C 72 % 75 % 0 % 1024,0 hPa 0,0 l/m 8,0 km/h (2 Bft) SW 225 0 min 0,0 UV-I 11,4 C 16,5 C 8,5 km/h (2 Bft)
06.04.2011 19:50 16,5 C 14,5 C 16,1 C 16,5 C 16,4 C 0,0 C 73 % 74 % 0 % 1024,0 hPa 0,0 l/m 7,7 km/h (2 Bft) SW 225 0 min 0,0 UV-I 11,6 C 16,4 C 8,0 km/h (2 Bft)
06.04.2011 19:55 16,4 C 14,5 C 16,0 C 16,4 C 16,3 C 0,0 C 73 % 75 % 0 % 1024,2 hPa 0,0 l/m 6,6 km/h (2 Bft) SW 225 0 min 0,0 UV-I 11,5 C 16,3 C 7,6 km/h (2 Bft)
06.04.2011 20:00 16,5 C 14,5 C 16,0 C 16,4 C 16,3 C 0,0 C 73 % 75 % 0 % 1024,2 hPa 0,0 l/m 6,6 km/h (2 Bft) SW 225 0 min 0,0 UV-I 11,6 C 16,3 C 11,1 km/h (2 Bft)
06.04.2011 20:10 16,3 C 14,5 C 16,0 C 16,3 C 16,3 C 0,0 C 73 % 75 % 0 % 1024,2 hPa 0,0 l/m 7,7 km/h (2 Bft) N 0 0 min 0,0 UV-I 11,4 C 16,3 C 10,9 km/h (2 Bft)
06.04.2011 20:15 16,2 C 14,5 C 16,0 C 16,2 C 16,2 C 0,0 C 73 % 75 % 0 % 1024,9 hPa 0,0 l/m 6,3 km/h (2 Bft) S-SW 202 0 min 0,0 UV-I 11,4 C 16,2 C 4,5 km/h (1 Bft)
06.04.2011 20:20 16,3 C 14,6 C 16,0 C 16,3 C 16,2 C 0,0 C 73 % 75 % 0 % 1024,9 hPa 0,0 l/m 6,1 km/h (2 Bft) SW 225 0 min 0,0 UV-I 11,4 C 16,2 C 4,5 km/h (1 Bft)
06.04.2011 20:25 16,3 C 14,6 C 15,9 C 16,2 C 16,1 C 0,0 C 73 % 75 % 0 % 1024,9 hPa 0,0 l/m 4,8 km/h (1 Bft) W-SW 247 0 min 0,0 UV-I 11,4 C 16,1 C 5,5 km/h (1 Bft)
06.04.2011 20:30 16,2 C 14,6 C 15,9 C 16,2 C 16,1 C 0,0 C 73 % 75 % 0 % 1024,9 hPa 0,0 l/m 4,3 km/h (1 Bft) W-SW 247 0 min 0,0 UV-I 11,4 C 16,1 C 4,8 km/h (1 Bft)
06.04.2011 20:35 16,1 C 14,6 C 15,8 C 16,0 C 15,9 C 0,0 C 74 % 75 % 0 % 1024,2 hPa 0,0 l/m 3,9 km/h (1 Bft) W-SW 247 0 min 0,0 UV-I 11,5 C 15,9 C 3,5 km/h (1 Bft)
06.04.2011 20:40 16,0 C 14,6 C 15,6 C 16,0 C 15,9 C 0,0 C 74 % 75 % 0 % 1024,2 hPa 0,0 l/m 3,5 km/h (1 Bft) W-SW 247 0 min 0,0 UV-I 11,4 C 15,9 C 2,3 km/h (1 Bft)
06.04.2011 20:45 16,0 C 14,6 C 15,6 C 15,9 C 15,7 C 0,0 C 74 % 76 % 0 % 1024,2 hPa 0,0 l/m 4,2 km/h (1 Bft) SW 225 0 min 0,0 UV-I 11,4 C 15,7 C 9,2 km/h (2 Bft)
06.04.2011 20:50 16,0 C 14,6 C 15,6 C 15,9 C 15,7 C 0,0 C 74 % 76 % 0 % 1024,2 hPa 0,0 l/m 4,8 km/h (1 Bft) W-SW 247 0 min 0,0 UV-I 11,4 C 15,7 C 6,4 km/h (2 Bft)
06.04.2011 20:55 15,9 C 14,6 C 15,5 C 15,8 C 15,7 C 0,0 C 74 % 76 % 0 % 1024,2 hPa 0,0 l/m 5,5 km/h (1 Bft) SW 225 0 min 0,0 UV-I 11,3 C 15,7 C 6,8 km/h (2 Bft)
06.04.2011 21:00 15,9 C 14,6 C 15,5 C 15,8 C 15,7 C 0,0 C 74 % 76 % 0 % 1024,2 hPa 0,0 l/m 5,1 km/h (1 Bft) SW 225 0 min 0,0 UV-I 11,3 C 15,7 C 4,5 km/h (1 Bft)
06.04.2011 21:11 15,7 C 14,6 C 15,3 C 15,6 C 15,4 C 0,0 C 75 % 77 % 0 % 1024,2 hPa 0,0 l/m 3,2 km/h (1 Bft) N 0 0 min 0,0 UV-I 11,3 C 15,4 C 2,6 km/h (1 Bft)
06.04.2011 21:15 15,7 C 14,6 C 15,3 C 15,5 C 15,2 C 0,0 C 75 % 77 % 0 % 1024,2 hPa 0,0 l/m 1,8 km/h (1 Bft) W-SW 247 0 min 0,0 UV-I 11,3 C 15,2 C 0,0 km/h (0 Bft)
06.04.2011 21:20 15,6 C 14,6 C 15,0 C 15,4 C 15,1 C 0,0 C 76 % 77 % 0 % 1024,2 hPa 0,0 l/m 0,8 km/h (0 Bft) S-SO 157 0 min 0,0 UV-I 11,4 C 15,1 C 3,9 km/h (1 Bft)
06.04.2011 21:25 15,4 C 14,7 C 14,9 C 15,3 C 15,0 C 0,0 C 76 % 78 % 0 % 1024,2 hPa 0,0 l/m 1,3 km/h (1 Bft) S-SO 157 0 min 0,0 UV-I 11,2 C 15,0 C 3,5 km/h (1 Bft)
06.04.2011 21:30 15,5 C 14,7 C 14,8 C 15,3 C 14,9 C 0,0 C 76 % 78 % 0 % 1024,2 hPa 0,0 l/m 1,8 km/h (1 Bft) SW 225 0 min 0,0 UV-I 11,3 C 14,9 C 0,0 km/h (0 Bft)
06.04.2011 21:35 15,3 C 14,7 C 14,8 C 15,1 C 14,7 C 0,0 C 76 % 79 % 0 % 1024,1 hPa 0,0 l/m 0,8 km/h (0 Bft) NW 315 0 min 0,0 UV-I 11,1 C 14,7 C 0,0 km/h (0 Bft)
06.04.2011 21:40 15,2 C 14,7 C 14,7 C 15,0 C 14,5 C 0,0 C 77 % 79 % 0 % 1024,1 hPa 0,0 l/m 0,2 km/h (0 Bft) O-SO 112 0 min 0,0 UV-I 11,2 C 14,5 C 0,0 km/h (0 Bft)
06.04.2011 21:45 15,1 C 14,7 C 14,5 C 14,8 C 14,3 C 0,0 C 77 % 79 % 0 % 1024,1 hPa 0,0 l/m 0,2 km/h (0 Bft) N-NW 337 0 min 0,0 UV-I 11,1 C 14,3 C 0,0 km/h (0 Bft)
06.04.2011 21:50 15,0 C 14,8 C 14,3 C 14,7 C 14,1 C 0,0 C 78 % 80 % 0 % 1024,1 hPa 0,0 l/m 0,2 km/h (0 Bft) N-NW 337 0 min 0,0 UV-I 11,2 C 14,1 C 0,0 km/h (0 Bft)
06.04.2011 21:55 14,9 C 14,8 C 14,1 C 14,6 C 13,9 C 0,0 C 78 % 81 % 0 % 1024,2 hPa 0,0 l/m 0,0 km/h (0 Bft) O-NO 67 0 min 0,0 UV-I 11,1 C 13,9 C 0,0 km/h (0 Bft)
06.04.2011 22:00 14,9 C 14,7 C 14,0 C 14,5 C 13,8 C 0,0 C 78 % 81 % 0 % 1024,2 hPa 0,0 l/m 0,0 km/h (0 Bft) O-NO 67 0 min 0,0 UV-I 11,1 C 13,8 C 0,0 km/h (0 Bft)
06.04.2011 22:10 14,7 C 14,8 C 13,7 C 14,3 C 13,5 C 0,0 C 79 % 81 % 0 % 1024,2 hPa 0,0 l/m 0,0 km/h (0 Bft) N 0 0 min 0,0 UV-I 11,1 C 13,5 C 0,0 km/h (0 Bft)
06.04.2011 22:15 14,5 C 14,8 C 13,6 C 14,1 C 13,3 C 0,0 C 79 % 82 % 0 % 1024,1 hPa 0,0 l/m 0,2 km/h (0 Bft) N-NO 22 0 min 0,0 UV-I 10,9 C 13,3 C 0,0 km/h (0 Bft)
06.04.2011 22:20 14,5 C 14,8 C 13,6 C 14,1 C 13,2 C 0,0 C 79 % 82 % 0 % 1024,1 hPa 0,0 l/m 0,2 km/h (0 Bft) O 90 0 min 0,0 UV-I 10,9 C 13,2 C 0,0 km/h (0 Bft)
06.04.2011 22:25 14,4 C 14,8 C 13,5 C 14,0 C 13,2 C 0,0 C 79 % 83 % 0 % 1024,1 hPa 0,0 l/m 0,0 km/h (0 Bft) NO 45 0 min 0,0 UV-I 10,8 C 13,2 C 0,0 km/h (0 Bft)
06.04.2011 22:30 14,4 C 14,8 C 13,5 C 14,0 C 13,3 C 0,0 C 79 % 83 % 0 % 1024,1 hPa 0,0 l/m 0,0 km/h (0 Bft) N-NW 337 0 min 0,0 UV-I 10,8 C 13,3 C 0,0 km/h (0 Bft)
06.04.2011 22:35 14,5 C 14,7 C 13,4 C 14,1 C 13,3 C 0,0 C 80 % 83 % 0 % 1024,1 hPa 0,0 l/m 0,0 km/h (0 Bft) NW 315 0 min 0,0 UV-I 11,1 C 13,3 C 0,0 km/h (0 Bft)
06.04.2011 22:40 14,4 C 14,7 C 13,5 C 14,1 C 13,4 C 0,0 C 80 % 83 % 0 % 1024,1 hPa 0,0 l/m 0,0 km/h (0 Bft) W-SW 247 0 min 0,0 UV-I 11,0 C 13,4 C 0,0 km/h (0 Bft)
06.04.2011 22:45 14,4 C 14,7 C 13,4 C 14,1 C 13,5 C 0,0 C 79 % 84 % 0 % 1024,1 hPa 0,0 l/m 0,6 km/h (0 Bft) SW 225 0 min 0,0 UV-I 10,8 C 13,5 C 0,0 km/h (0 Bft)
06.04.2011 22:50 14,5 C 14,7 C 13,5 C 14,1 C 13,4 C 0,0 C 79 % 84 % 0 % 1024,1 hPa 0,0 l/m 0,6 km/h (0 Bft) SW 225 0 min 0,0 UV-I 10,9 C 13,4 C 0,0 km/h (0 Bft)
06.04.2011 22:55 14,3 C 14,7 C 13,3 C 13,9 C 13,2 C 0,0 C 80 % 84 % 0 % 1023,9 hPa 0,0 l/m 0,5 km/h (0 Bft) W-SW 247 0 min 0,0 UV-I 10,9 C 13,2 C 2,1 km/h (1 Bft)
06.04.2011 23:00 14,3 C 14,7 C 13,4 C 13,9 C 13,2 C 0,0 C 80 % 84 % 0 % 1023,9 hPa 0,0 l/m 1,4 km/h (1 Bft) W 270 0 min 0,0 UV-I 10,9 C 13,2 C 2,1 km/h (1 Bft)
06.04.2011 23:09 14,3 C 14,7 C 13,2 C 13,9 C 13,2 C 0,0 C 80 % 84 % 0 % 1023,9 hPa 0,0 l/m 1,1 km/h (1 Bft) N 0 0 min 0,0 UV-I 10,9 C 13,2 C 0,0 km/h (0 Bft)
06.04.2011 23:15 14,1 C 14,7 C 13,1 C 13,7 C 13,0 C 0,0 C 81 % 85 % 0 % 1023,6 hPa 0,0 l/m 1,3 km/h (1 Bft) SW 225 0 min 0,0 UV-I 10,9 C 13,0 C 4,8 km/h (1 Bft)
06.04.2011 23:20 14,1 C 14,7 C 13,2 C 13,7 C 13,0 C 0,0 C 80 % 84 % 0 % 1023,6 hPa 0,0 l/m 1,8 km/h (1 Bft) W-SW 247 0 min 0,0 UV-I 10,7 C 13,0 C 0,0 km/h (0 Bft)
06.04.2011 23:25 14,0 C 14,7 C 13,0 C 13,7 C 13,0 C 0,0 C 81 % 84 % 0 % 1023,6 hPa 0,0 l/m 1,4 km/h (1 Bft) W 270 0 min 0,0 UV-I 10,8 C 13,0 C 0,0 km/h (0 Bft)
06.04.2011 23:30 14,1 C 14,7 C 13,0 C 13,7 C 12,9 C 0,0 C 81 % 84 % 0 % 1023,6 hPa 0,0 l/m 0,5 km/h (0 Bft) N-NO 22 0 min 0,0 UV-I 10,9 C 12,9 C 0,0 km/h (0 Bft)
06.04.2011 23:35 13,9 C 14,7 C 12,9 C 13,5 C 12,8 C 0,0 C 81 % 85 % 0 % 1023,6 hPa 0,0 l/m 0,8 km/h (0 Bft) SW 225 0 min 0,0 UV-I 10,7 C 12,8 C 1,8 km/h (1 Bft)
06.04.2011 23:40 13,9 C 14,7 C 12,9 C 13,5 C 12,8 C 0,0 C 81 % 85 % 0 % 1023,6 hPa 0,0 l/m 0,6 km/h (0 Bft) NW 315 0 min 0,0 UV-I 10,7 C 12,8 C 0,0 km/h (0 Bft)
06.04.2011 23:45 13,8 C 14,9 C 12,6 C 13,4 C 12,7 C 0,0 C 81 % 85 % 0 % 1023,6 hPa 0,0 l/m 0,2 km/h (0 Bft) NO 45 0 min 0,0 UV-I 10,6 C 12,7 C 0,0 km/h (0 Bft)
06.04.2011 23:50 13,7 C 14,7 C 12,7 C 13,3 C 12,6 C 0,0 C 81 % 85 % 0 % 1023,6 hPa 0,0 l/m 0,0 km/h (0 Bft) NO 45 0 min 0,0 UV-I 10,5 C 12,6 C 0,0 km/h (0 Bft)
06.04.2011 23:55 13,6 C 14,9 C 12,5 C 13,2 C 12,4 C 0,0 C 82 % 85 % 0 % 1023,4 hPa 0,0 l/m 0,0 km/h (0 Bft) O 90 0 min 0,0 UV-I 10,6 C 12,4 C 0,0 km/h (0 Bft)
_ Min-Zeit 05:15 07:40 05:30 05:20 05:20 00:00 00:00 15:10 00:00 05:15 - 02:50 - - - 00:00 02:09 06:30 00:30
Minimum _ 10,4 C 12,5 C 9,8 C 10,0 C 9,3 C 0,0 C 64 % 59 % 0 % 1023,4 hPa - 0,0 km/h (0 Bft) - - - 0,0 UV-I 4,9 C 8,9 C 0,0 km/h (0 Bft)
_ Max-Zeit 15:00 23:45 15:00 15:00 15:00 14:55 23:55 23:15 14:55 11:55 00:00 11:10 - - 00:00 14:25 16:10 15:00 11:10
Maximum _ 19,1 C 14,9 C 21,5 C 21,8 C 21,8 C 2,8 C 82 % 85 % 74 % 1025,6 hPa 0,0 l/m 15,0 km/h
N (3 Bft)
- - 0 min 2,0 UV-I 12,8 C 21,8 C 30,6 km/h
N (5 Bft)
Durchschnitt _ 14,3 C 13,4 C 13,9 C 14,4 C 14,2 C 0,2 C 71 % 73 % 6 % 1024,2 hPa #0,0 l/m 6,1 km/h (2 Bft) SW - #0 min. 0,8 UV-I 9,0 C 14,1 C 7,8 km/h (2 Bft)
2013 www.wetterstation-wechselburg.de